KODAMA (DRTS)

Last updated on Sept. 4, 2017, 12:18 a.m. UTC

1 27516U 02042B   17246.22060050 -.00000265  00000-0  00000-0 0  9998
2 27516   5.1765  61.6423 0022795 159.4239 174.0173  0.99278336 13720
UTC
Height (km)
Latitude
Longitude
Inclination
Orbital Period
UTC large
Height (km)
Speed (km/s)
/
Latitude / Longitude
Inclination (degrees)
Orbital Period (minutes)
Azimuth
Elevation
Range (km)
Doppler Factor
iOS Compass Heading
iOS Angle

Next 30 passes for location: Hong Kong

Rise time Rise Azimuth (degrees) Set time Set Azimuth (degrees) Duration Max altitude (degrees)

No matching passes for this satellites